Regional Weather Roundup
Issued by NWS

Home | Current Version | Previous Version | Graphics & Text | Print | Product List | Glossary On
Versions: 1 2 3 4 5 6 7 8 9 10 11 12 13 14 15 16 17 18 19 20 21 22 23 24 25 26 27 28 29 30 31 32 33 34 35 36 37 38 39 40 41 42 43 44 45 46 47 48 49 50
000
ASUS43 KIND 282309
RWRIN

WEATHER ROUNDUP FOR INDIANA
NATIONAL WEATHER SERVICE INDIANAPOLIS IN
700 PM EDT THU MAY 28 2015

NOTE: "FAIR" INDICATES FEW OR NO CLOUDS BELOW 12,000 FEET WITH NO
SIGNIFICANT WEATHER AND/OR OBSTRUCTIONS TO VISIBILITY.

* - STATION DOES NOT REPORT WEATHER SUCH AS PRECIPITATION OR FOG.

+ - STATION NOT QUALITY CONTROLLED BY THE NATIONAL WEATHER SERVICE.
    USE DATA WITH CAUTION...ESPECIALLY DEWPOINT AND RELATIVE
    HUMIDITY OBSERVATIONS.

INZ001>003-010>013-019-020-290000-
NORTHWEST INDIANA

CITY           SKY/WX    TMP DP  RH WIND       PRES   REMARKS
GARY /AIRPORT/ MOSUNNY   73  55  53 SE13      30.12F
KNOX *+        SUNNY     81  54  39 E12       30.12F
LA PORTE +     SUNNY     83  53  35 SE7       30.14F
MICHIGAN CITY+ MOSUNNY   79  52  38 SE5       30.13F
MONTICELLO +   MOSUNNY   81  56  41 S6        30.10F
RENSSELAER +   SUNNY     81  54  39 SE8       30.10F
VALPARAISO     SUNNY     81  54  39 E10       30.12F

$$

LMZ046-743>745-290000-
SOUTHERN LAKE MICHIGAN

STATION/POSITION TIME  TEMP    WIND        PRES    WAVE
                       AIR SEA DIR/SP/G            HT
                 (UTC) (F)     (DEG/KT/KT) (MB)    (FT)
BURNS HARBOR     2300   63      60/ 11/ 14 1020.3F
MICHIGAN CITY    2300   63      30/ 10/ 12   N/A
5NW MICH CITY    2300   60 56   70/  6/  8   N/A     1

$$

INZ004-005-014>016-021>024-290000-
NORTH CENTRAL INDIANA

CITY           SKY/WX    TMP DP  RH WIND       PRES   REMARKS
ELKHART        SUNNY     81  54  39 SE10      30.16F
GOSHEN         SUNNY     80  57  45 SE9       30.15F
LOGANSPORT +   MOSUNNY   81  45  28 S9        30.12F
PERU/GRISSOM   MOSUNNY   83  58  42 S3        30.11F
ROCHESTER +    SUNNY     82  55  39 SE7       30.13F
SOUTH BEND     SUNNY     81  54  39 SE15      30.15F
WARSAW +       SUNNY     79  59  50 CALM      30.15F

$$

INZ006>009-017-018-025>027-290000-
NORTHEAST INDIANA

CITY           SKY/WX    TMP DP  RH WIND       PRES   REMARKS
ANGOLA *+      SUNNY     79  55  44 SE7       30.18S
AUBURN +       SUNNY     79  55  44 E7        30.17F
FORT WAYNE     MOSUNNY   81  56  42 E8        30.15F
HUNTINGTON +   PTSUNNY   80  57  45 E3        30.14F

$$

INZ028-029-035-036-043>045-051>053-290000-
WEST CENTRAL INDIANA

CITY           SKY/WX    TMP DP  RH WIND       PRES   REMARKS
CRAWFORDSVL +  SUNNY     81  46  29 SE7       30.10F
GREENCASTLE +  SUNNY     81  55  41 S7        30.11F
LAFAYETTE      MOSUNNY   81  60  48 VRB5      30.09F
TERRE HAUTE    SUNNY     84  61  45 S9        30.08F

$$

INZ030>032-037>040-046>048-054>057-064-065-290000-
CENTRAL INDIANA

CITY           SKY/WX    TMP DP  RH WIND       PRES   REMARKS
CP ATTERBURY + SUNNY     79  63  57 S7        30.13F
COLUMBUS       MOSUNNY   81  57  44 SE9       30.12F
FISHERS *+     MOSUNNY   81  63  54 S6        30.11F
FRANKFORT +    MOSUNNY   83  56  38 S5        30.13F
GREENWOOD *+   SUNNY     82  57  42 S7        30.12F
INDIANAPOLIS   MOSUNNY   81  59  47 S12       30.10F
-EAGLE CREEK   MOSUNNY   82  59  45 SW10      30.10F
KOKOMO *+      MOSUNNY   82  55  39 S10       30.11F
MARION +       SUNNY     82  51  34 S9        30.14F
MT COMFORT *+  MOSUNNY   84  39  20 S10       30.12F
SHELBYVILLE    MOSUNNY   84  62  47 S10       30.11F
ZIONSVILLE +   MOSUNNY   83  55  37 SW8       30.12F

$$

INZ033-034-041-042-049-050-058-059-290000-
EAST CENTRAL INDIANA

CITY           SKY/WX    TMP DP  RH WIND       PRES   REMARKS
MUNCIE         MOSUNNY   83  59  44 S8        30.13F

$$

INZ060-061-067>069-081>083-085>088-290000-
SOUTHWEST INDIANA

CITY           SKY/WX    TMP DP  RH WIND       PRES   REMARKS
EVANSVILLE     MOSUNNY   83  65  54 S6        30.09F
HUNTINGBURG *+ MOSUNNY   79  66  65 SE12      30.11F
WASHINGTON +   MOSUNNY   82  58  43 S8        30.08F

$$

INZ062-063-066-070>080-084-089>092-290000-
SOUTH CENTRAL AND SOUTHEAST INDIANA

CITY           SKY/WX    TMP DP  RH WIND       PRES   REMARKS
BLOOMINGTON    MOSUNNY   79  64  60 SE10      30.12F
MADISON *+     SUNNY     81  59  47 S6        30.16S
NORTH VERNON + SUNNY     81  61  50 SE5       30.14F
SEYMOUR +      SUNNY     82  63  51 SE7       30.12F

$$



USA.gov is the U.S. government's official web portal to all federal, state and local government web resources and services.